THORAD AGENA D DEB, 42512

Orbit data source: Space-Track

THORAD AGENA D DEB, 42512 is space debris in SSO originally from a launch on Wed, 08 Apr 1970 UTC launched from the Air Force Western Test Range (AFWTR). Debris objects in space refer to the collection of defunct objects orbiting the Earth. Examples of debris include non-operational satellites, rocket bodies, and fragments generated from explosions, collisions, or faulty payload assembly.

Loading next visibility...
Identifier
42512, 1970-025RS
Orbit
SSO
Country
Flag of USUS
Related business
Manufacturer
Unknown
Mission
Spacecraft
Bus & Motor
Unknown
Mass
Unknown
Launch date (UTC)
1970-04-08 (56 years ago)
Launch vehicle
Unknown
Launch site
Air Force Western Test Range (AFWTR)
Object type
Payload
Rocket body
Debris
Shape & HBR
Unknown shape, 0.1 m
Radar Cross Section
Small (<0.1 m²)

Expand to show TLE details & history
Last TLE update: 2 days ago

TLE from 2 days ago
0 THORAD AGENA D DEB
1 42512U 70025RS  25285.97946507  .00000054  00000-0  16902-3 0  9997
2 42512  99.8323 184.7153 0006787 256.9966 103.0407 13.43789234583139
Epoch: 2025-10-12T23:30Z
TLE epoch observation values (Epoch: 2025-10-12T23:30:25.782Z)
Latitude
0.00003°
Longitude
170.31904°
Altitude
1,099.118 km
Speed
7.302 km/s
True Right ascension
12h 18m 51s
True Declination
0° 00' 00"
Sunlit
Object was in daylight at epoch
Visualization orbit readout
Latitude
Unknown
Longitude
Unknown
Altitude
Unknown
Speed
Unknown
Apparent Right ascension
Unknown
Apparent Declination
Unknown
Sunlit
N/A
Visualization observer readout
Local Sidereal Time
02:52:16
Azimuth
Unknown
Elevation
Unknown
Doppler factor
Unknown
Orbital elements
Apogee altitude
1,097.584 km
Perigee altitude
1,087.443 km
Semi-major axis
7,470.651 km
Eccentricity
0.00068
Inclination
99.8323°
RAAN
184.7153°
Arg. of periapsis
256.9966°
True anomaly
103.11645°
Mean anomaly
103.0407°
Eccentric anomaly
103.07858°
Mean motion
3.36129 °/min
Orbital period
107.1 mins
BSTAR
0.00016902

Documentation

Showing up to 5 results
|